Torna al catalogo

COSMOS 516

AttivoMilitareLEO
NORAD 6154·PAYLOAD·🇷🇺 Russia

Lanciato Aug 21, 1972 da Baikonur Cosmodrome

Loading…

Prossimi Passaggi (prossime 24 ore)

TLE

AggiornatoSource: Space-Track

Epoca: Sep 14, 2026, 15:00 UTC

1 06154U 72066A   26257.62507528 -.00000054  00000-0  34457-4 0  9991
2 06154  64.8119 319.4497 0054504  62.2183 298.4383 13.77815144720247

Traccia COSMOS 516 in tempo reale con AllMySat

Download on the App Store